KA1JKB Weather Reports


time (UTC)temp
C
wind
direction
speed
KPH
gust
KPH
rain 1hr
cm
rain 24hr
cm
rain mn
cm
humidity
%
barometer
mb
20260503184025 16 240 12.9 24.1 0.00 0.00 0.00 43 1008.6
20260503183522 17 281 16.1 24.1 0.00 0.00 0.00 43 1008.6
20260503183019 17 231 20.9 35.4 0.00 0.00 0.00 41 1008.8
20260503182518 16 273 22.5 33.8 0.00 0.00 0.00 42 1009.0
20260503182015 16 336 17.7 35.4 0.00 0.00 0.00 44 1008.8
20260503181512 16 239 16.1 30.6 0.00 0.00 0.00 43 1008.7
20260503181008 16 227 12.9 35.4 0.00 0.00 0.00 42 1009.1
20260503180506 16 240 17.7 27.4 0.00 0.00 0.00 40 1009.0
20260503180003 16 217 22.5 30.6 0.00 0.00 0.00 42 1009.1
20260503175500 16 246 22.5 30.6 0.00 0.00 0.00 41 1009.1
20260503174956 16 305 19.3 41.8 0.00 0.00 0.00 42 1009.3
20260503174455 16 233 12.9 27.4 0.00 0.00 0.00 43 1009.4
20260503173950 16 223 14.5 22.5 0.00 0.00 0.00 41 1009.3
20260503173446 16 232 9.7 22.5 0.00 0.00 0.00 45 1009.5
20260503172943 16 243 9.7 20.9 0.00 0.00 0.00 43 1009.4
20260503172440 16 228 12.9 14.5 0.00 0.00 0.00 44 1009.4
20260503171937 15 255 12.9 24.1 0.00 0.00 0.00 44 1009.6
20260503171433 16 234 24.1 38.6 0.00 0.00 0.00 43 1009.5
20260503170931 16 300 12.9 24.1 0.00 0.00 0.00 46 1009.6
20260503170427 15 239 14.5 22.5 0.00 0.00 0.00 44 1009.9
20260503150819 11 255 11.3 20.9 0.00 0.00 0.00 53 1011.0
20260503150315 10 242 9.7 25.7 0.00 0.00 0.00 54 1011.3
20260503140240 12 235 17.7 27.4 0.00 0.00 0.00 50 1011.2
20260503131209 10 237 12.9 16.1 0.00 0.00 0.00 58 1011.2
20260503130707 10 215 8.0 16.1 0.00 0.00 0.00 56 1011.4
20260503130204 10 267 12.9 17.7 0.00 0.00 0.00 57 1011.3
20260503120130 6 240 4.8 6.4 0.00 0.00 0.00 70 1011.3
20260503110557 2 174 1.6 3.2 0.00 0.00 0.00 78 1011.3
20260503090444 1 169 3.2 4.8 0.00 0.00 0.00 77 1011.8
20260503081410 0 167 1.6 1.6 0.00 0.00 0.00 80 1012.5
20260503080907 0 171 1.6 1.6 0.00 0.00 0.00 80 1012.2
20260503080404 0 164 1.6 3.2 0.00 0.00 0.00 83 1012.3
20260503072840 0 156 0.0 1.6 0.00 0.00 0.00 86 1012.3
20260503072337 0 156 0.0 1.6 0.00 0.00 0.00 86 1012.3
20260503071833 0 156 0.0 1.6 0.00 0.00 0.00 86 1012.3
20260503071331 0 156 0.0 0.0 0.00 0.00 0.00 85 1012.3
20260503070827 0 156 1.6 1.6 0.00 0.00 0.00 85 1012.4
20260503070326 0 156 1.6 1.6 0.00 0.00 0.00 85 1012.4
20260503060250 0 156 0.0 0.0 0.00 0.00 0.00 90 1012.7
20260503054737 0 156 0.0 0.0 0.00 0.00 0.00 90 1013.0
20260503054234 0 156 0.0 0.0 0.00 0.00 0.00 90 1013.0
20260503053732 0 156 0.0 0.0 0.00 0.00 0.00 90 1013.0
20260503053231 0 156 0.0 1.6 0.00 0.00 0.00 90 1013.0
20260503052726 0 156 0.0 1.6 0.00 0.00 0.00 91 1013.2
20260503052223 0 156 1.6 1.6 0.00 0.00 0.00 91 1013.3
20260503051718 0 156 0.0 1.6 0.00 0.00 0.00 90 1013.1
20260503051216 0 156 0.0 1.6 0.00 0.00 0.00 91 1013.2
20260503050713 0 156 0.0 1.6 0.00 0.00 0.00 91 1013.2
20260503050209 0 156 0.0 1.6 0.00 0.00 0.00 91 1013.1
20260503045707 0 156 0.0 1.6 0.00 0.00 0.00 91 1013.3
20260503045204 0 156 0.0 0.0 0.00 0.00 0.00 91 1013.3
20260503044700 0 156 0.0 1.6 0.00 0.00 0.00 90 1013.3
20260503044158 0 156 0.0 0.0 0.00 0.00 0.00 89 1013.4
20260503043654 0 156 0.0 0.0 0.00 0.00 0.00 89 1013.4
20260503043152 0 156 0.0 1.6 0.00 0.00 0.00 90 1013.4
20260503042648 0 156 0.0 1.6 0.00 0.00 0.00 90 1013.4
20260503042144 0 156 0.0 0.0 0.00 0.00 0.00 90 1013.2
20260503041641 0 156 0.0 0.0 0.00 0.00 0.00 90 1013.4
20260503041139 0 156 0.0 1.6 0.00 0.00 0.00 89 1013.4
20260503040636 0 156 0.0 1.6 0.00 0.00 0.00 88 1013.3
20260503040133 0 156 0.0 0.0 0.00 0.00 0.00 89 1013.5
20260503035629 0 156 0.0 1.6 0.00 0.00 0.00 90 1013.3
20260503035127 0 156 0.0 1.6 0.00 0.00 0.00 91 1013.5
20260503034625 0 157 0.0 0.0 0.00 0.00 0.00 91 1013.4
20260503034122 0 157 0.0 0.0 0.00 0.00 0.00 91 1013.5
20260503033619 0 156 0.0 0.0 0.00 0.00 0.00 91 1013.5
20260503033116 0 156 0.0 0.0 0.00 0.00 0.00 91 1013.6
20260503032615 0 156 0.0 1.6 0.00 0.00 0.00 92 1013.7
20260503032113 0 156 0.0 1.6 0.00 0.00 0.00 91 1013.6
20260503031610 0 156 0.0 0.0 0.00 0.00 0.00 89 1013.8
20260503031108 0 157 0.0 0.0 0.00 0.00 0.00 87 1013.6
20260503030603 0 157 0.0 0.0 0.00 0.00 0.00 85 1013.7
20260503030100 0 156 0.0 0.0 0.00 0.00 0.00 85 1013.6
20260503025557 0 157 0.0 0.0 0.00 0.00 0.00 83 1013.7
20260503025055 0 157 0.0 0.0 0.00 0.00 0.00 83 1013.7
20260503024550 0 156 0.0 0.0 0.00 0.00 0.00 84 1013.8
20260503024048 0 157 0.0 0.0 0.00 0.00 0.00 82 1013.7
20260503023544 0 157 0.0 0.0 0.00 0.00 0.00 82 1013.6
20260503023042 0 157 0.0 0.0 0.00 0.00 0.00 82 1013.7
20260503022538 0 157 0.0 0.0 0.00 0.00 0.00 80 1013.8
20260503022033 0 157 0.0 0.0 0.00 0.00 0.00 81 1013.5
20260503021530 0 157 0.0 0.0 0.00 0.00 0.00 80 1013.8
20260503021027 0 157 0.0 0.0 0.00 0.00 0.00 80 1013.7
20260503020524 0 157 0.0 0.0 0.00 0.00 0.00 79 1013.6
20260503020021 0 157 0.0 0.0 0.00 0.00 0.00 78 1013.8
20260503015517 1 157 0.0 0.0 0.00 0.00 0.00 77 1013.5
20260503015015 1 157 0.0 0.0 0.00 0.00 0.00 77 1013.8
20260503014511 1 157 0.0 0.0 0.00 0.00 0.00 77 1013.7
20260503014009 1 157 0.0 0.0 0.00 0.00 0.00 77 1013.6
20260503013506 1 157 0.0 0.0 0.00 0.00 0.00 74 1013.5
20260503013003 1 157 0.0 0.0 0.00 0.00 0.00 72 1013.4
20260503012501 1 157 0.0 0.0 0.00 0.00 0.00 70 1013.4
20260503011956 2 157 0.0 0.0 0.00 0.00 0.00 69 1013.4
20260503011454 2 157 0.0 0.0 0.00 0.00 0.00 68 1013.4
20260503010951 3 157 0.0 0.0 0.00 0.00 0.00 66 1013.5
20260503010447 3 157 0.0 0.0 0.00 0.00 0.00 65 1013.3
20260503005944 4 165 0.0 1.6 0.00 0.00 0.00 64 1013.1
20260503005442 5 168 0.0 0.0 0.00 0.00 0.00 62 1013.4
20260503004938 5 188 1.6 3.2 0.00 0.00 0.00 61 1013.1
20260503004435 6 232 3.2 4.8 0.00 0.00 0.00 59 1013.3
20260503003933 6 237 3.2 4.8 0.00 0.00 0.00 57 1013.3
20260503003429 6 236 4.8 4.8 0.00 0.00 0.00 57 1013.2
20260503002927 7 236 3.2 6.4 0.00 0.00 0.00 54 1013.3
20260503002424 7 196 1.6 6.4 0.00 0.00 0.00 52 1013.3
20260503001920 7 243 3.2 4.8 0.00 0.00 0.00 55 1013.4
20260503001416 7 204 1.6 4.8 0.00 0.00 0.00 53 1013.1
20260503000914 8 293 3.2 6.4 0.00 0.00 0.00 49 1013.2
20260503000411 8 224 3.2 12.9 0.00 0.00 0.00 48 1013.2
20260502235908 8 211 3.2 9.7 0.00 0.00 0.00 51 1013.3
20260502235405 8 185 1.6 4.8 0.00 0.00 0.00 52 1013.1
20260502234902 8 249 6.4 9.7 0.00 0.00 0.00 50 1013.2
20260502234359 8 304 1.6 4.8 0.00 0.00 0.00 51 1013.2
20260502233856 8 178 1.6 4.8 0.00 0.00 0.00 51 1013.2
20260502233352 8 197 3.2 4.8 0.00 0.00 0.00 52 1013.3
20260502232849 8 205 3.2 6.4 0.00 0.00 0.00 51 1013.3
20260502232345 8 242 3.2 4.8 0.00 0.00 0.00 49 1013.3
20260502231842 8 210 1.6 6.4 0.00 0.00 0.00 50 1013.4
20260502231340 8 254 6.4 9.7 0.00 0.00 0.00 50 1013.4
20260502230838 8 243 8.0 9.7 0.00 0.00 0.00 51 1013.5
20260502230336 8 209 3.2 9.7 0.00 0.00 0.00 49 1013.4
20260502225832 8 263 3.2 6.4 0.00 0.00 0.00 51 1013.5
20260502225328 8 253 4.8 6.4 0.00 0.00 0.00 50 1013.7
20260502224826 8 265 3.2 4.8 0.00 0.00 0.00 50 1013.7
20260502224321 8 231 3.2 4.8 0.00 0.00 0.00 52 1013.6
20260502223819 8 230 3.2 4.8 0.00 0.00 0.00 54 1013.5
20260502223317 7 282 4.8 6.4 0.00 0.00 0.00 52 1013.5
20260502222815 7 285 3.2 6.4 0.00 0.00 0.00 51 1013.7
20260502222312 7 275 4.8 4.8 0.00 0.00 0.00 52 1013.6
20260502221808 8 16 1.6 4.8 0.00 0.00 0.00 51 1013.5
20260502221304 8 175 1.6 3.2 0.00 0.00 0.00 53 1013.6
20260502220801 8 197 3.2 6.4 0.00 0.00 0.00 50 1013.6
20260502220257 8 255 8.0 12.9 0.00 0.00 0.00 51 1013.4
20260502215754 8 247 8.0 14.5 0.00 0.00 0.00 50 1013.4
20260502215251 8 297 4.8 12.9 0.00 0.00 0.00 49 1013.3
20260502214748 8 272 6.4 16.1 0.00 0.00 0.00 50 1013.5
20260502214245 8 261 6.4 14.5 0.00 0.00 0.00 49 1013.4
20260502213742 9 304 9.7 12.9 0.00 0.00 0.00 49 1013.6
20260502213239 10 233 4.8 11.3 0.00 0.00 0.00 45 1013.6
20260502212738 10 277 9.7 17.7 0.00 0.00 0.00 43 1013.5
20260502212236 10 295 8.0 12.9 0.00 0.00 0.00 46 1013.4
20260502211731 9 244 8.0 12.9 0.00 0.00 0.00 48 1013.4
20260502211229 10 155 1.6 6.4 0.00 0.00 0.00 48 1013.4
20260502210726 10 325 12.9 17.7 0.00 0.00 0.00 44 1013.6
20260502210223 10 265 3.2 16.1 0.00 0.00 0.00 50 1013.4
20260502205720 8 290 11.3 14.5 0.00 0.00 0.00 48 1013.7
20260502205216 8 275 9.7 11.3 0.00 0.00 0.00 50 1013.6
20260502204713 7 252 6.4 14.5 0.00 0.00 0.00 48 1013.8
20260502204211 8 245 8.0 14.5 0.00 0.00 0.00 49 1013.6
20260502203708 8 238 6.4 16.1 0.00 0.00 0.00 50 1013.7
20260502203206 8 224 8.0 14.5 0.00 0.00 0.00 48 1013.9
20260502202700 10 288 6.4 14.5 0.00 0.00 0.00 41 1013.9
20260502202159 8 219 3.2 4.8 0.00 0.00 0.00 48 1014.0
20260502201656 8 294 9.7 12.9 0.00 0.00 0.00 47 1014.1
20260502201152 8 271 4.8 9.7 0.00 0.00 0.00 48 1013.9
20260502200648 9 247 8.0 17.7 0.00 0.00 0.00 48 1014.1
20260502200144 8 215 3.2 6.4 0.00 0.00 0.00 50 1014.1
20260502195643 8 257 9.7 14.5 0.00 0.00 0.00 50 1014.0
20260502195139 8 248 6.4 12.9 0.00 0.00 0.00 49 1014.1
20260502194636 8 273 6.4 14.5 0.00 0.00 0.00 46 1014.0
20260502194133 9 280 11.3 12.9 0.00 0.00 0.00 46 1014.2
20260502193629 9 295 8.0 12.9 0.00 0.00 0.00 44 1014.1
20260502193126 8 230 3.2 11.3 0.00 0.00 0.00 48 1014.3
20260502192621 8 245 3.2 6.4 0.00 0.00 0.00 49 1014.4
20260502192119 8 251 6.4 16.1 0.00 0.00 0.00 47 1014.3
20260502191616 9 249 9.7 12.9 0.00 0.00 0.00 44 1014.6
20260502191113 10 244 4.8 6.4 0.00 0.00 0.00 44 1014.4
20260502190611 8 304 1.6 11.3 0.00 0.00 0.00 50 1014.6
20260502190108 8 242 9.7 11.3 0.00 0.00 0.00 48 1014.7
20260502185602 8 248 4.8 12.9 0.00 0.00 0.00 47 1014.7
20260502185100 8 299 6.4 9.7 0.00 0.00 0.00 49 1014.6
20260502184556 8 236 8.0 16.1 0.00 0.00 0.00 45 1014.7